Weather History for Miami, FL

Change the Weather History Date:

Tuesday, December 3, 2013

  Actual Average Record
Temperature  
Mean Temperature 71 °F 72 °F  
Max Temperature 80 °F 79 °F 89 °F (1902)
Min Temperature 61 °F 65 °F 37 °F (1910)
Degree Days  
Heating Degree Days 0 0  
Month to date heating degree days 0 0  
Since 1 July heating degree days 2 3  
Cooling Degree Days 6 8  
Month to date cooling degree days 18 24  
Year to date cooling degree days 4559 4396  
Growing Degree Days 20 (Base 50)    
Moisture  
Dew Point 61 °F    
Average Humidity 74    
Maximum Humidity 93    
Minimum Humidity 54    
Precipitation  
Precipitation 0.00 in 0.07 in 0.75 in (1972)
Month to date precipitation 0.21 0.22  
Year to date precipitation 65.96 60.08  
Snow  
Snow 0.00 in - - ()
Month to date snowfall 0.0  
Since 1 July snowfall 0.0  
Snow Depth 0.00 in    
Sea Level Pressure  
Sea Level Pressure 29.97 in    
Wind  
Wind Speed 4 mph (SSE)    
Max Wind Speed 14 mph    
Max Gust Speed 20 mph    
Visibility 10 miles    
Events      
T = Trace of Precipitation, MM = Missing Value Source: NWS Daily Summary

Daily Weather History Graph

Daily Weather History Graph

Search for Another Location

Airport:

Trip Planner

Search our weather history database for the weather conditions in past years. The results will help you decide how hot, cold, wet, or windy it might be!

Date:

Astronomy

Dec. 03, 2013 Rise Set
Actual Time 6:52 AM EST 5:29 PM EST
Civil Twilight 6:27 AM EST 5:54 PM EST
Nautical Twilight 5:59 AM EST 6:23 PM EST
Astronomical Twilight 5:31 AM EST 6:51 PM EST
Moon 7:22 AM EST (12/3) 6:29 PM EST (12/3)
Length of Visible Light 11h 27m
Length of Day
10h 37m
New Moon, 1% of the Moon is Illuminated
Dec 3
New Moon
Dec 9
First Quarter
Dec 17
Full
Dec 25
Last Quarter
Jan 1
New

Hourly Weather History & Observations

Time (EST) Temp. Dew Point Humidity Pressure Visibility Wind Dir Wind Speed Gust Speed Precip Events Conditions
12:53 AM 64.0 °F 57.0 °F 78% 29.93 in 10.0 mi Calm Calm - N/A   Scattered Clouds
1:53 AM 64.0 °F 57.9 °F 80% 29.92 in 10.0 mi Calm Calm - N/A   Scattered Clouds
2:53 AM 62.1 °F 57.9 °F 86% 29.93 in 10.0 mi Calm Calm - N/A   Clear
3:53 AM 62.1 °F 59.0 °F 90% 29.93 in 10.0 mi Calm Calm - N/A   Overcast
4:53 AM 63.0 °F 60.1 °F 90% 29.93 in 10.0 mi Calm Calm - N/A   Overcast
5:53 AM 66.0 °F 61.0 °F 84% 29.94 in 10.0 mi Calm Calm - N/A   Overcast
6:53 AM 66.9 °F 59.0 °F 76% 29.96 in 10.0 mi Calm Calm - N/A   Mostly Cloudy
7:53 AM 68.0 °F 57.0 °F 68% 29.98 in 10.0 mi Calm Calm - N/A   Mostly Cloudy
8:53 AM 71.1 °F 57.9 °F 63% 29.99 in 10.0 mi Calm Calm - N/A   Mostly Cloudy
9:53 AM 75.0 °F 57.0 °F 53% 30.01 in 10.0 mi ESE 3.5 mph - N/A   Scattered Clouds
10:53 AM 78.1 °F 60.1 °F 54% 30.00 in 10.0 mi South 8.1 mph - N/A   Scattered Clouds
11:53 AM 79.0 °F 61.0 °F 54% 29.98 in 10.0 mi South 8.1 mph - N/A   Mostly Cloudy
12:53 PM 79.0 °F 60.1 °F 52% 29.96 in 10.0 mi South 8.1 mph - N/A   Mostly Cloudy
1:53 PM 79.0 °F 61.0 °F 54% 29.95 in 10.0 mi Variable 6.9 mph - N/A   Mostly Cloudy
2:53 PM 78.1 °F 61.0 °F 56% 29.94 in 10.0 mi SSE 8.1 mph - N/A   Mostly Cloudy
3:53 PM 78.1 °F 62.1 °F 58% 29.94 in 10.0 mi Variable 6.9 mph 16.1 mph N/A   Mostly Cloudy
4:53 PM 75.9 °F 62.1 °F 62% 29.95 in 10.0 mi SSE 6.9 mph - N/A   Scattered Clouds
5:53 PM 75.0 °F 64.9 °F 71% 29.97 in 10.0 mi South 6.9 mph - N/A   Mostly Cloudy
6:53 PM 73.9 °F 66.0 °F 76% 29.98 in 10.0 mi SE 8.1 mph - N/A   Scattered Clouds
7:53 PM 73.0 °F 66.0 °F 79% 29.99 in 10.0 mi SE 5.8 mph - N/A   Partly Cloudy
8:53 PM 72.0 °F 66.0 °F 81% 30.01 in 10.0 mi Calm Calm - N/A   Partly Cloudy
9:53 PM 72.0 °F 66.0 °F 81% 30.02 in 10.0 mi SE 3.5 mph - N/A   Mostly Cloudy
10:53 PM 72.0 °F 66.0 °F 81% 30.02 in 10.0 mi South 3.5 mph - N/A   Mostly Cloudy
11:53 PM 72.0 °F 66.0 °F 81% 30.01 in 10.0 mi SSE 4.6 mph - N/A   Mostly Cloudy